Home   Weather   Barnaul   Past weeks

Flag for Russia Past Weather in Barnaul, Russia — Yesterday and Last 2 Weeks

Now
54 °F

Broken clouds.


Feels Like: 50 °F
Forecast: 49 / 64 °F
Wind: 10 mph from Northwest

Location: Barnaul Airport

Current Time: Aug 19, 2017 at 8:35:23 am

Latest Report: Aug 19, 2017 at 8:00 am


Visibility: N/A

Pressure: 30.01 "Hg

Humidity: 94%

Dew Point: 52 °F

Location of BarnaulLocation

Past Weather in Barnaul — Graph

°F

Barnaul Temperature Yesterday

Maximum temperature yesterday: 73 °F (at 3:00 pm)
Minimum temperature yesterday: 55 °F (at 4:30 am)
Average temperature yesterday: 64 °F

High & Low Weather Summary for the Past Weeks

 TemperatureHumidityPressure
High73 °F (Aug 9, 3:00 pm)100% (Aug 10, 6:00 am)30.12 "Hg (Aug 10, 6:00 am)
Low43 °F (Aug 16, 6:00 am)41% (Aug 17, 4:00 pm)29.39 "Hg (Aug 11, 11:30 pm)
Average59 °F77%29.89 "Hg
* Reported Aug 8 8:00 pm — Aug 19 7:00 am, Barnaul. Weather by CustomWeather, © 2017

Note: Actual official high and low records may vary slightly from our data, if they occured in-between our weather recording intervals... More about our weather records

Advertising

Barnaul Weather History for the Previous 24 Hours

Scroll right to see more
 ConditionsComfort  
Time TempWeatherWind HumidityBarometerVisibility
7:00 am
Sat, Aug 19
54 °FBroken clouds.8 mph100%30.01 "HgN/A
6:30 am54 °FBroken clouds.8 mph100%30.01 "HgN/A
6:00 am54 °FPartly cloudy.8 mph94%30.01 "HgN/A
5:30 am55 °FPartly cloudy.8 mph94%29.98 "HgN/A
5:00 am55 °FPartly cloudy.8 mph94%29.98 "HgN/A
4:30 am55 °FPartly cloudy.8 mph94%29.98 "HgN/A
4:00 am55 °FPartly cloudy.8 mph100%29.98 "HgN/A
3:30 am57 °FPartly cloudy.8 mph94%29.98 "HgN/A
2:30 am57 °FPartly cloudy.8 mph94%29.98 "HgN/A
2:00 am57 °FPartly cloudy.10 mph94%29.98 "HgN/A
1:30 am57 °FPartly cloudy.8 mph94%29.98 "HgN/A
1:00 am57 °FPartly cloudy.10 mph94%29.98 "HgN/A
12:30 am57 °FPartly cloudy.8 mph94%29.98 "HgN/A
12:00 am57 °FPassing clouds.8 mph94%29.98 "HgN/A
11:30 pm
Fri, Aug 18
59 °FPassing clouds.8 mph94%29.98 "HgN/A
11:00 pm59 °FPassing clouds.8 mph94%29.98 "HgN/A
10:30 pm59 °FPassing clouds.8 mph94%29.98 "HgN/A
10:00 pm61 °FPassing clouds.10 mph88%29.98 "HgN/A
9:30 pm61 °FPassing clouds.8 mph88%29.98 "HgN/A
9:00 pm63 °FPassing clouds.8 mph88%29.98 "HgN/A
8:30 pm63 °FScattered clouds.8 mph83%29.95 "HgN/A
8:00 pm63 °FScattered clouds.10 mph77%29.95 "HgN/A
7:30 pm64 °FScattered clouds.10 mph78%29.95 "HgN/A
7:00 pm66 °FScattered clouds.10 mph73%29.95 "HgN/A
6:30 pm66 °FScattered clouds.13 mph68%29.95 "HgN/A
6:00 pm70 °FScattered clouds.10 mph53%29.95 "HgN/A
5:30 pm72 °FScattered clouds.13 mph50%29.92 "HgN/A
5:00 pm70 °FScattered clouds.10 mph53%29.92 "HgN/A
4:30 pm70 °FScattered clouds.8 mph50%29.92 "HgN/A
4:00 pm70 °FScattered clouds.3 mph46%29.92 "HgN/A
3:30 pm72 °FScattered clouds.3 mph44%29.92 "HgN/A
3:00 pm73 °FScattered clouds.3 mph41%29.92 "HgN/A
2:30 pm70 °FScattered clouds.3 mph50%29.92 "HgN/A
2:00 pm72 °FScattered clouds.3 mph44%29.95 "HgN/A
1:30 pm72 °FScattered clouds.1 mph41%29.95 "HgN/A
1:00 pm70 °FScattered clouds.1 mph46%29.95 "HgN/A
12:30 pm70 °FScattered clouds.3 mph50%29.95 "HgN/A
12:00 pm70 °FScattered clouds.1 mph50%29.95 "HgN/A
11:30 am70 °FPassing clouds.1 mph53%29.98 "HgN/A
11:00 am68 °FPassing clouds.No wind49%29.98 "HgN/A
10:30 am68 °FSunny.1 mph53%29.98 "Hg10 mi
10:00 am68 °FSunny.No wind49%29.98 "Hg10 mi
9:30 am66 °FSunny.No wind60%29.98 "Hg10 mi
9:00 am64 °FSunny.1 mph64%29.98 "Hg10 mi
8:30 am64 °FSunny.No wind64%29.98 "Hg10 mi
8:00 am61 °FSunny.1 mph72%29.98 "Hg10 mi
Weather by CustomWeather, © 2017

See weather overviewHow to use our weather pages